Location: Gloden
(48.4833°N, 15.3167°E)
Time: 20:19:20
(UTC+00:00)

IRS-1C Rocket - Pass Details

Date: 15 December 2019
Orbit: 800 x 806 km, 99.0° (Epoch: 25 January)

Event Time Altitude Azimuth Distance (km) Brightness Sun altitude
Rises 05:51:34 0° 12° (NNE) 3,324 7.2 -8.2°
Reaches altitude 10° 05:53:55 10° 10° (N) 2,389 6.4 -7.9°
Maximum altitude 05:59:07 63° 290° (WNW) 892 4.1 -7.1°
Drops below altitude 10° 06:04:18 10° 210° (SSW) 2,371 6.5 -6.4°
Sets 06:06:38 0° 207° (SSW) 3,297 7.3 -6.0°
